Regional Weather Roundup
Issued by NWS Charleston, SC

Current Version | Previous Version | Graphics & Text | Print | Product List | Glossary On
Versions: 1 2 3 4 5 6 7 8 9 10 11 12 13 14 15 16 17 18 19 20 21 22 23 24 25 26 27 28 29 30 31 32 33 34 35 36 37 38 39 40 41 42 43 44 45 46 47 48 49 50
000
ASUS42 KCHS 231628
RWRCHS

REGIONAL WEATHER ROUNDUP
NATIONAL WEATHER SERVICE CHARLESTON SC
1200 PM EDT SAT JUL 23 2016

NOTE: "FAIR" INDICATES FEW OR NO CLOUDS BELOW 12,000 FEET WITH NO
SIGNIFICANT WEATHER AND/OR OBSTRUCTIONS TO VISIBILITY.

NOT ALL STATIONS ARE QUALITY CONTROLLED. USE DATA WITH CAUTION...
ESPECIALLY DEWPOINT OBSERVATIONS.

SCZ027-030-031-034>040-042>050-231700-
...SOUTHEAST SOUTH CAROLINA...

CITY           SKY/WX    TMP DP  RH WIND       PRES   REMARKS
N CHARLESTON   MOSUNNY   92  73  53 SW8       30.03F HX 100
WATERFRONT PRK   N/A     88  75  65 VRB3      30.02R HX  97
MOUNT PLEASANT FAIR      91  75  59 SE6       30.03F HX 102
JOHNS ISLAND   PTSUNNY   90  79  70 SE9       30.03F HX 105
PINOPOLIS        N/A     86  75  70 CALM      29.96S HX  95
MONCKS CORNER  FAIR      88  70  55 CALM      30.03S HX  92
SUMMERVILLE    FAIR      91  73  55 CALM      30.03F HX 100
BEAUFORT MCAS    N/A     93  74  53 MISG      30.04S HX 103
BEAUFORT ARPT  FAIR      88  72  58 S5        30.03F HX  94
HILTON HEAD IS SUNNY     97  73  46 MISG      30.05S HX 107
WALTERBORO     SUNNY     93  72  49 CALM      30.04F HX 100
ALLENDALE      FAIR      91  73  55 VRB5      30.02F HX 100

...SOUTHERN MIDLANDS AND PEE DEE...

CITY           SKY/WX    TMP DP  RH WIND       PRES   REMARKS
GEORGETOWN     FAIR      84  73  70 SE8       30.04F HX  91
KINGSTREE      FAIR      90  73  58 W5        30.01F HX  98
ORANGEBURG     SUNNY     91  73  55 SW6       30.03F HX  99
BARNWELL       NOT AVBL
AIKEN          FAIR      90  70  51 W9        30.07S HX  95
MANNING        FAIR      90  70  51 W6        30.02F HX  95
COLUMBIA       MOSUNNY   93  70  46 SW6       30.01F HX  99
SUMTER         SUNNY     91  74  58 VRB3      30.00S HAZE    HX 100
FLORENCE       SUNNY     90  73  57 SW6       30.02S HX  98
MYRTLE BEACH   SUNNY     84  70  61 S12       30.05F
N MYRTLE BEACH CLOUDY    85  74  69 SW14      30.03F HX  92

$$

GAZ063-065-086>088-099>101-113>116-118-119-134>141-150-231700-
...SOUTHEAST GEORGIA...

CITY           SKY/WX    TMP DP  RH WIND       PRES   REMARKS
SAVANNAH ARPT  MOSUNNY   92  74  55 SW6       30.04S HX 101
HUNTER AAF     SUNNY     91  79  68 W7        30.01F HX 106
FORT STEWART   SUNNY     91  73  56 SW2       30.01F HX  99
STATESBORO     SUNNY     91  77  61 CALM      30.04F HX 104
SYLVANIA       NOT AVBL
CLAXTON        FAIR      91  76  60 S3        30.04F HX 103

...CSRA...CENTRAL AND FAR SOUTHEAST GEORGIA...

CITY           SKY/WX    TMP DP  RH WIND       PRES   REMARKS
THOMSON        MOSUNNY   95  74  50 CALM      30.08S HX 105
AUGUSTA-BUSH   MOSUNNY   92  71  50 VRB5      30.02F HX  98
AUGUSTA-DANIEL MOSUNNY   92  70  48 SW6       30.04F HX  97
SWAINSBORO     PTSUNNY   91  72  52 S6        30.05S HX  98
VIDALIA        MOSUNNY   93  72  49 S3        30.04F HX 100
EASTMAN        FAIR      92  59  32 CALM      30.07S HX  91
HAZLEHURST     FAIR      93  73  51 CALM      30.03F HX 102
ALMA           SUNNY     89  73  59 CALM      30.05F HX  97
WAYCROSS       SUNNY     93  75  55 CALM      30.05F HX 104
JESUP          FAIR      91  79  66 CALM      30.04F HX 107
BAXLEY         FAIR      90  81  74 S7        30.04F HX 108
BRUNSWICK      SUNNY     91  73  55 W6        30.05F HX 100
SAINT SIMONS   SUNNY     90  72  55 SW7       30.04F HX  97

$$

SCZ027-028-034-036>038-045-046-048>050-GAZ119-141-231700-
...LAKE AND SUPPLEMENTAL COASTAL OBSERVATIONS...

STATION/POSITION TIME  TEMP    WIND        PRES    WAVE   SWELL
                       AIR SEA DIR/SP/G            HT/PER HT/PER/DIR
                 (UTC) (F)     (DEG/KT/KT) (MB)    (FT/S) (FT/S/D)
WINYAH BAY       1500   84     210/  6     1017.0
LAKE MURRAY      1500   87     180/  6/  9 1015.9R
ACE BASIN NERRS  1500   88     240/  1     1017.0S
FORT PULASKI     1600   87 87  180/  5/  8 1017.6F
SAPELO ISLAND    1600   90     230/  4     1017.0F

$$

ANZ835-935-AMZ111-154-330-350-352-354-370-450-454-472-231700-
...C-MAN AND BUOY OBSERVATIONS...

STATION/POSITION TIME  TEMP    WIND        PRES    WAVE   SWELL
                       AIR SEA DIR/SP/G            HT/PER HT/PER/DIR
                 (UTC) (F)     (DEG/KT/KT) (MB)    (FT/S) (FT/S/D)
BUOY 41004       1550   83 85   40/  2/  6 1017.1F   3/ 9   2/120/ 9
BUOY 41008       1550   84 87  210/  8/ 10 1017.5F   2/ 9   2/ 90/ 9
FOLLY BEACH CMAN 1600   85     190/  7/  8 1017.4F
CAPERS NEARSHORE 1608   84 84  150/  4/  6 1017.2F
FRIPP NEARSHORE  1608   84 86  230/  8/ 10 1016.7F


STATION/POSITION TIME  TEMP    WIND        PRES    WAVE   SWELL
                       AIR SEA DIR/SP/G            HT/PER HT/PER/DIR
                 (UTC) (F)     (DEG/KT/KT) (MB)    (FT/S) (FT/S/D)
5E ST. MARYS GA  1601      87                N/A     2/ 9
FRYING PAN BUOY  1600   81 85  270/  8/ 12 1016.6F
BUOY 41025       1550   84 86  220/ 12/ 12 1016.8S   2/ 8   2/120/ 8
CAPE LOOKOUT NC  1600   86     200/ 10/ 13 1016.6F
BUOY 41002       1550   82 86  110/  4/  6 1017.7R   2/ 8   2/100/ 8
BUOY 41010       1520   84 87   10/  6/  8 1017.9R
ST AUGUSTINE FL  1600   83 86   90/  7/  8 1018.9R


$$




USA.gov is the U.S. government's official web portal to all federal, state and local government web resources and services.